{"data":{"norad_id":67467,"intl_designator":"2026-008Y","name":"STARLINK-36425","alt_names":[],"object_type":"PAYLOAD","status":"ACTIVE","operator":null,"country":"US","launch_date":"2026-01-14","launch_site_code":"AFETR","launch_vehicle":null,"mission":null,"orbit_class":"UNKNOWN","rcs_meters":null,"size_class":null,"mass_kg":null,"dimensions":null,"purposes":["comms"],"wikipedia_slug":null,"has_3d_model":false,"image_url":null,"decayed_at":null,"tle_current":{"epoch":"2026-09-19T12:34:39.851040Z","epoch_age_seconds":156573,"freshness":"FRESH","line1":"1 67467U 26008Y   26262.52407235  .00015548  00000+0  57307-3 0  9999","line2":"2 67467  43.0009 190.8228 0002508 267.8444  92.2120 15.27593877 39213","mean_motion":15.27593877,"eccentricity":0.0002508,"inclination_deg":43.0009,"raan_deg":190.8228,"arg_perigee_deg":267.8444,"mean_anomaly_deg":92.212,"bstar":0.00057307,"rev_number":3921,"period_min":94.265892373697,"perigee_km":481.28676857245,"apogee_km":484.72831867553,"semimajor_km":6861.144543624,"source":"CELESTRAK","updated_at":"2026-09-20T09:00:43.552970Z"}}}